STARLINK-1053

Last updated on Thu Dec 12 2019 00:02:04 GMT+0000 (Coordinated Universal Time)

1 44758U 19074AX 19345.58335648 -.00063748 00000-0 -17007-2 0 9990 2 44758 53.0068 23.8011 0001193 69.1309 7.3175 15.37697630 4700

Satellite not in orbit